Wind_Speed
28 29 28 28 29 29 30 31 31 32 34 36 37 38 39 40 41 42 42 42 43 43 43 43 43 43 43 44 43 42 42 41 42 41 41 41 41 41 40 40 39 39 39 40
27 28 27 28 28 29 30 31 31 32 34 36 37 38 38 39 41 42 42 43 43 44 44 44 44 44 44 45 45 44 44 44 44 43 43 43 42 42 41 41 41 40 40 40
27 26 27 29 29 30 30 31 32 33 34 36 37 38 38 38 40 40 41 42 43 44 44 45 45 45 45 45 45 46 46 46 46 46 45 44 44 43 43 43 43 42 42 41
26 27 27 29 30 30 31 31 32 33 34 35 36 38 36 37 38 39 40 41 42 43 44 45 45 45 46 46 46 46 46 46 47 46 45 45 45 44 44 43 43 44 43 43
25 25 27 28 29 30 30 31 32 33 35 36 35 37 36 36 37 38 40 40 41 42 44 44 45 45 45 46 46 46 47 47 47 47 46 45 45 45 45 45 45 45 44 44
25 25 26 27 28 30 30 31 31 32 33 35 34 36 36 35 35 36 38 39 40 41 43 44 44 45 45 46 46 47 47 47 48 48 48 47 47 47 47 47 46 46 46 45
24 25 26 26 27 28 28 28 29 31 32 33 33 35 34 33 34 35 36 37 39 41 42 43 44 45 45 46 46 47 47 48 48 48 48 48 49 48 48 48 48 48 47 47
24 24 23 24 26 26 27 27 29 31 31 32 32 35 33 34 34 35 35 37 38 39 40 42 43 44 44 45 46 47 47 48 48 49 49 49 49 49 49 49 49 49 48 47
24 24 23 24 25 26 26 26 27 30 31 32 32 33 34 34 35 36 35 36 37 38 39 41 41 42 43 43 44 45 46 47 48 49 49 48 49 49 49 50 49 49 49 48
23 23 22 23 24 25 26 27 27 29 31 32 32 31 32 32 33 34 34 36 37 37 39 40 40 41 42 42 43 44 44 45 46 47 48 49 49 49 49 50 50 50 50 50
23 23 22 22 23 24 26 27 28 29 31 32 33 30 30 30 30 31 33 34 34 35 37 38 39 40 41 41 42 42 44 44 45 46 47 48 48 49 49 50 50 50 50 50
24 24 24 24 24 25 26 27 28 30 31 32 33 32 29 30 30 30 31 33 34 34 34 35 36 38 39 40 41 42 43 44 45 45 45 46 46 47 48 48 49 50 50 51
24 25 26 25 25 25 26 26 28 29 31 32 33 32 29 30 31 31 32 33 33 34 34 34 35 36 37 38 40 41 42 43 44 44 44 46 46 47 47 47 48 49 50 50
25 25 26 26 26 26 26 26 27 28 30 32 32 31 29 31 31 32 32 32 33 33 33 34 34 34 35 37 38 40 40 41 42 43 44 45 46 47 47 46 47 47 48 49
25 26 26 26 26 27 26 26 27 28 29 30 30 30 29 30 30 30 31 31 31 32 33 34 34 34 35 35 37 38 39 40 41 42 43 44 45 45 46 46 46 46 47 48
26 26 27 27 27 27 27 27 28 28 28 29 29 29 30 30 30 30 30 31 31 32 32 33 34 35 35 35 36 37 38 39 40 41 42 43 44 45 46 46 46 46 46 47
26 27 29 29 28 29 29 28 28 29 28 29 30 30 31 31 31 31 32 32 32 32 32 33 33 34 35 36 36 37 37 38 38 39 40 41 42 43 44 45 46 46 46 47
25 26 28 29 29 29 27 26 27 28 28 29 30 31 31 32 32 31 32 32 33 34 34 34 34 34 34 35 36 36 37 37 38 38 39 40 41 42 43 43 44 45 46 46
26 26 28 29 30 29 27 26 27 28 29 29 30 30 30 30 31 31 31 32 33 34 34 33 34 34 34 34 34 35 35 35 36 37 38 38 39 40 41 42 42 43 44 45
25 26 27 28 30 30 29 29 28 29 29 29 29 29 30 30 31 30 31 31 31 33 33 33 33 33 34 34 34 35 35 36 37 37 37 38 38 39 40 41 41 42 43 43
26 27 27 29 30 30 30 30 30 30 29 29 29 29 29 30 31 31 30 30 31 31 31 32 31 32 33 34 35 36 36 36 36 37 38 38 38 38 39 39 40 41 42 43
27 27 28 29 30 30 30 30 30 30 30 30 30 30 30 30 30 30 30 30 31 31 31 31 31 31 32 32 34 35 35 36 37 37 38 38 38 38 38 39 39 40 41 42
27 28 29 30 30 31 31 31 30 29 29 30 30 30 31 30 30 29 30 30 31 31 31 30 30 31 31 32 32 33 34 35 36 36 37 37 37 38 38 38 39 39 40 41
27 28 29 30 29 30 30 30 30 29 29 29 29 29 30 30 29 29 29 29 30 30 30 30 30 30 31 31 31 31 33 34 35 36 37 37 37 38 38 38 39 39 40 40
28 28 29 29 29 29 29 29 29 29 29 29 29 29 29 29 29 28 28 28 29 29 28 28 28 29 30 30 30 30 31 32 33 34 36 36 36 37 37 38 39 39 39 39
28 29 29 29 30 31 31 30 29 29 29 29 29 29 29 28 27 27 27 27 27 27 27 27 27 28 28 29 29 29 30 31 32 32 33 35 35 36 36 36 36 37 37 38
Wind_Direction
272 269 267 266 266 267 266 264 264 263 261 260 259 259 257 255 254 253 252 251 250 249 249 250 250 249 249 249 249 249 249 250 251 252 254 255 255 255 255 256 256 256 256 257
272 270 269 266 266 266 266 266 265 264 263 262 262 260 259 258 256 255 253 252 251 250 250 250 250 250 250 250 249 249 249 250 251 253 254 255 255 254 254 255 255 255 256 256
274 272 269 267 267 266 267 267 266 265 264 262 263 261 260 259 258 256 254 253 252 251 252 251 251 251 251 251 251 250 250 250 251 253 253 254 254 254 254 254 254 255 255 255
274 272 271 269 268 268 268 268 267 266 265 264 263 264 261 260 259 257 257 256 255 254 253 253 252 251 251 251 251 251 251 252 252 253 253 253 253 254 254 253 253 254 254 255
275 274 274 273 271 269 270 269 268 268 267 266 264 267 265 262 260 260 259 258 257 256 255 253 253 252 251 251 251 251 250 251 252 252 252 252 253 253 253 253 253 253 254 256
277 277 276 274 273 271 271 272 271 270 270 269 266 268 267 265 263 262 259 258 259 258 256 255 254 253 252 251 251 251 251 251 251 252 253 252 252 252 253 252 253 253 254 256
279 278 277 275 273 272 271 272 272 272 271 271 268 267 268 268 266 264 261 260 260 260 258 256 255 254 253 252 252 252 252 252 252 252 252 252 252 252 253 252 252 253 254 256
281 278 277 276 275 276 273 270 270 272 273 273 271 269 269 268 269 267 264 262 262 260 259 257 256 254 253 252 252 252 252 252 252 252 252 252 252 252 252 252 252 253 254 256
283 280 279 277 277 277 276 271 272 273 274 275 274 273 270 270 270 268 266 264 263 261 259 258 256 255 254 253 252 252 252 251 251 251 251 251 251 251 252 252 252 253 254 255
280 280 280 280 279 277 276 276 274 273 274 276 278 276 274 272 270 270 268 266 265 263 261 259 257 256 255 254 253 253 253 252 251 251 251 251 250 250 251 253 253 253 254 255
282 281 280 280 281 282 279 277 275 274 274 275 279 278 275 275 273 269 268 267 266 265 263 261 258 256 254 253 252 252 252 252 251 251 251 251 250 250 251 253 253 253 254 255
283 282 281 281 282 282 281 279 277 276 276 276 279 280 276 274 273 271 269 269 267 266 264 261 258 256 254 253 253 252 252 252 251 252 252 251 251 251 252 253 253 253 255 255
283 282 283 282 283 284 283 279 277 276 277 276 278 282 280 276 274 273 271 269 269 267 265 262 259 257 256 254 253 252 252 252 251 251 251 251 251 251 252 254 254 254 255 255
281 282 282 282 284 285 284 280 278 277 277 277 277 280 279 278 275 273 272 271 269 267 266 263 261 260 258 257 255 253 252 252 251 251 251 252 252 252 253 254 255 255 255 255
283 283 283 283 283 284 284 283 280 279 280 279 278 278 278 277 276 274 272 271 269 267 266 264 262 262 261 259 257 255 254 254 253 252 253 252 252 253 254 255 256 256 255 256
284 284 285 286 287 287 286 284 282 280 280 280 279 278 277 277 274 272 271 271 267 268 267 265 264 262 261 260 257 256 256 255 255 254 254 254 254 254 254 256 256 256 256 256
285 285 286 288 288 288 287 286 285 283 281 280 280 279 278 277 276 274 272 270 268 267 267 265 264 262 262 260 258 257 257 256 256 256 256 256 255 255 256 257 257 257 257 258
286 287 288 289 288 288 290 289 287 285 284 283 282 282 279 278 279 277 275 271 268 268 270 267 263 262 261 261 259 258 257 257 257 257 257 257 256 256 257 258 258 258 258 258
286 287 288 289 288 289 290 291 291 288 286 285 286 285 281 280 279 278 277 274 271 269 270 268 264 263 262 261 259 257 257 257 258 258 258 258 257 257 258 258 258 258 258 258
288 287 288 289 289 290 292 291 291 289 288 287 287 287 284 282 280 279 278 276 274 272 271 270 266 263 261 260 259 257 257 257 257 258 259 259 259 259 258 257 258 258 258 259
290 287 286 288 289 290 291 290 290 287 288 287 286 287 286 284 283 281 279 277 277 275 274 272 268 265 262 260 259 258 258 257 257 258 258 258 260 260 258 258 258 258 258 258
291 289 288 287 288 290 291 290 289 287 285 285 285 285 286 286 285 283 280 279 279 278 276 274 270 267 265 263 260 259 258 258 258 259 259 259 259 259 259 259 259 259 259 259
291 289 286 286 287 289 289 289 288 287 285 284 284 284 283 285 285 284 282 280 279 278 277 275 272 269 267 265 263 260 259 258 259 260 260 259 259 259 260 260 260 261 261 260
290 289 286 286 287 288 289 289 288 287 285 285 284 284 283 283 284 285 284 282 279 278 276 274 272 271 269 267 265 262 261 261 261 261 261 261 261 261 260 261 262 262 262 262
288 287 287 286 287 287 289 291 290 287 285 285 285 285 284 283 285 285 286 284 281 278 276 274 272 271 269 268 268 265 264 264 263 263 262 263 262 261 261 261 263 262 261 261
288 287 288 289 289 290 291 291 290 288 286 286 285 285 284 285 285 285 284 283 281 278 277 275 273 272 270 269 269 268 265 265 264 264 264 264 264 263 263 263 263 263 262 261
Height
5662 5662 5661 5662 5662 5662 5662 5662 5663 5664 5665 5665 5666 5667 5670 5672 5673 5675 5678 5680 5683 5685 5688 5690 5692 5694 5697 5699 5701 5703 5705 5706 5708 5709 5710 5711 5712 5713 5714 5715 5716 5717 5717 5718
5654 5653 5654 5654 5653 5653 5653 5653 5654 5655 5655 5655 5656 5657 5659 5661 5662 5664 5666 5669 5671 5674 5676 5679 5681 5683 5685 5688 5690 5692 5694 5695 5697 5698 5700 5701 5702 5703 5704 5705 5706 5707 5708 5708
5645 5647 5645 5645 5645 5645 5645 5645 5646 5645 5645 5645 5646 5647 5649 5650 5651 5653 5655 5657 5660 5662 5665 5667 5669 5671 5673 5676 5678 5680 5682 5684 5685 5687 5688 5689 5690 5691 5693 5694 5695 5697 5698 5699
5637 5638 5637 5637 5637 5636 5637 5637 5636 5635 5635 5635 5636 5635 5639 5640 5640 5642 5644 5646 5648 5651 5653 5655 5657 5659 5662 5664 5666 5668 5670 5672 5673 5675 5676 5678 5679 5681 5683 5684 5685 5686 5688 5689
5630 5630 5629 5629 5629 5628 5628 5628 5627 5626 5625 5625 5626 5625 5629 5630 5630 5632 5634 5636 5637 5639 5641 5643 5645 5648 5650 5652 5654 5656 5658 5660 5662 5663 5665 5666 5668 5670 5671 5672 5674 5675 5677 5678
5623 5622 5621 5621 5620 5620 5619 5619 5618 5616 5615 5615 5617 5616 5617 5620 5621 5622 5623 5624 5625 5627 5628 5630 5633 5635 5637 5639 5641 5643 5645 5647 5649 5651 5653 5654 5656 5658 5659 5661 5662 5664 5665 5667
5615 5615 5613 5612 5612 5611 5610 5610 5608 5607 5606 5607 5608 5606 5608 5611 5611 5611 5612 5613 5614 5615 5616 5618 5620 5622 5625 5627 5629 5631 5633 5635 5637 5638 5640 5642 5644 5645 5647 5649 5650 5652 5654 5655
5607 5607 5606 5604 5603 5602 5602 5602 5601 5599 5598 5598 5598 5596 5600 5601 5601 5601 5601 5602 5602 5603 5604 5606 5608 5610 5612 5614 5616 5618 5620 5622 5624 5625 5627 5629 5631 5633 5635 5636 5638 5640 5642 5643
5599 5599 5598 5597 5596 5595 5594 5593 5594 5592 5589 5588 5588 5589 5591 5591 5590 5590 5590 5591 5591 5592 5592 5594 5596 5598 5600 5602 5604 5605 5607 5609 5611 5612 5614 5616 5618 5620 5622 5624 5626 5627 5629 5631
5591 5591 5591 5590 5589 5588 5587 5586 5585 5583 5580 5578 5579 5580 5580 5580 5580 5580 5579 5579 5580 5581 5581 5582 5584 5585 5588 5589 5591 5593 5595 5596 5598 5599 5601 5603 5605 5607 5609 5611 5613 5615 5617 5618
5584 5584 5584 5582 5581 5580 5579 5578 5576 5574 5573 5571 5569 5572 5571 5570 5570 5569 5569 5569 5569 5569 5570 5571 5572 5574 5575 5577 5579 5581 5582 5584 5585 5587 5589 5590 5592 5594 5596 5598 5600 5602 5604 5606
5578 5577 5576 5575 5574 5573 5571 5570 5569 5567 5565 5563 5561 5565 5563 5562 5560 5559 5559 5558 5558 5558 5559 5560 5561 5562 5564 5565 5567 5569 5570 5572 5573 5575 5577 5578 5580 5582 5584 5586 5588 5589 5591 5593
5571 5570 5568 5567 5568 5566 5564 5562 5561 5559 5557 5555 5553 5556 5554 5552 5550 5550 5549 5548 5548 5548 5549 5549 5550 5551 5553 5554 5555 5557 5558 5560 5561 5563 5565 5566 5568 5570 5571 5573 5575 5576 5578 5580
5564 5563 5562 5561 5559 5557 5556 5555 5553 5550 5548 5546 5546 5546 5545 5542 5541 5541 5540 5539 5538 5538 5538 5539 5540 5541 5542 5543 5544 5545 5547 5548 5549 5551 5552 5554 5556 5557 5559 5560 5562 5563 5564 5566
5556 5555 5554 5553 5551 5549 5548 5546 5544 5542 5540 5538 5538 5536 5536 5533 5532 5531 5530 5530 5529 5528 5528 5529 5530 5531 5531 5532 5533 5534 5535 5536 5537 5539 5540 5541 5543 5544 5546 5547 5548 5550 5551 5553
5549 5548 5546 5545 5543 5541 5539 5538 5536 5534 5532 5530 5529 5528 5527 5524 5523 5522 5521 5521 5520 5519 5519 5519 5520 5521 5521 5522 5522 5523 5524 5525 5526 5527 5528 5529 5530 5532 5533 5534 5536 5537 5538 5540
5542 5540 5538 5537 5535 5532 5531 5531 5528 5526 5525 5523 5521 5520 5517 5516 5514 5513 5512 5511 5510 5510 5510 5510 5510 5510 5511 5511 5512 5512 5514 5514 5515 5516 5516 5517 5518 5519 5520 5522 5523 5524 5526 5527
5535 5533 5530 5528 5527 5524 5526 5523 5520 5518 5517 5515 5512 5510 5508 5506 5504 5503 5502 5502 5501 5500 5500 5499 5499 5499 5500 5500 5501 5502 5503 5503 5504 5505 5505 5505 5506 5507 5508 5509 5511 5512 5513 5515
5527 5525 5523 5520 5517 5516 5517 5515 5512 5509 5508 5506 5504 5501 5499 5497 5495 5494 5492 5491 5490 5490 5489 5488 5488 5489 5489 5489 5490 5491 5492 5492 5493 5494 5494 5494 5495 5496 5496 5497 5498 5500 5501 5502
5520 5517 5516 5512 5509 5508 5510 5506 5503 5501 5499 5498 5495 5493 5490 5488 5487 5486 5484 5482 5481 5480 5479 5478 5478 5478 5478 5479 5479 5480 5481 5482 5482 5483 5484 5484 5484 5484 5485 5486 5487 5488 5489 5490
5512 5509 5507 5504 5501 5500 5500 5497 5495 5494 5493 5489 5486 5484 5482 5479 5478 5476 5474 5473 5471 5470 5469 5468 5467 5467 5467 5468 5468 5469 5470 5471 5471 5472 5472 5473 5473 5473 5474 5474 5475 5476 5477 5478
5504 5501 5499 5496 5493 5494 5491 5488 5487 5485 5482 5479 5477 5475 5473 5471 5468 5467 5465 5463 5462 5461 5459 5458 5457 5457 5457 5457 5457 5458 5459 5459 5460 5460 5461 5461 5461 5462 5462 5463 5463 5464 5464 5465
5496 5494 5491 5489 5488 5484 5481 5479 5477 5475 5473 5470 5468 5466 5464 5462 5460 5458 5456 5454 5452 5451 5450 5448 5447 5447 5446 5446 5446 5447 5447 5448 5448 5449 5449 5449 5450 5450 5451 5451 5452 5452 5453 5454
5488 5485 5482 5479 5478 5475 5472 5469 5467 5465 5463 5461 5459 5457 5455 5453 5450 5448 5446 5444 5443 5441 5440 5439 5438 5437 5436 5436 5436 5436 5436 5436 5437 5438 5438 5438 5438 5439 5439 5440 5440 5441 5441 5441
5479 5476 5473 5471 5469 5466 5463 5460 5458 5455 5453 5452 5450 5447 5445 5443 5441 5439 5437 5435 5433 5432 5430 5429 5428 5427 5427 5426 5426 5426 5426 5426 5426 5427 5427 5427 5427 5428 5428 5428 5428 5429 5429 5429
5470 5467 5464 5462 5460 5456 5454 5451 5448 5446 5444 5442 5440 5438 5436 5433 5431 5429 5428 5426 5424 5423 5421 5420 5419 5418 5417 5417 5416 5416 5416 5416 5416 5416 5416 5416 5416 5417 5417 5417 5417 5417 5417 5417